• En España
  • Lista de países
  • Para 7 días
  • Temperatura del agua
  • Mapa Satelital
  • El tiempo en el mapa
  • Informadores
  • user-avatar
    Iniciar sesión

    Tiempo cada hora Malanje

    Hoy, 22 Octubre, Domingo

    Tiempo Temperatura Precipitaciones Viento Presión Humedad
    00:00 +22°C° 0,5 mm 1 mps 665 mmHg 88%
    01:00 +20°C° 0 mm 2 mps 666 mmHg 93%
    02:00 +21°C° 2,3 mm 1 mps 666 mmHg 93%
    03:00 +21°C° 2,3 mm 1 mps 666 mmHg 94%
    04:00 +21°C° 2,3 mm 1 mps 666 mmHg 94%
    05:00 +21°C° 3,3 mm 1 mps 666 mmHg 94%
    06:00 +21°C° 3,3 mm 1 mps 667 mmHg 94%
    07:00 +21°C° 0 mm 1 mps 668 mmHg 94%
    08:00 +22°C° 1,8 mm 1 mps 667 mmHg 92%
    09:00 +22°C° 1,8 mm 1 mps 667 mmHg 91%
    10:00 +22°C° 1,8 mm 1 mps 667 mmHg 90%
    11:00 +23°C° 0,9 mm 1 mps 667 mmHg 88%
    12:00 +23°C° 0,9 mm 1 mps 666 mmHg 87%
    13:00 +23°C° 0,9 mm 1 mps 666 mmHg 86%
    14:00 +23°C° 0,2 mm 1 mps 665 mmHg 84%
    15:00 +24°C° 0,2 mm 1 mps 665 mmHg 82%
    16:00 +24°C° 0,2 mm 1 mps 664 mmHg 80%
    17:00 +23°C° 0 mm 1 mps 664 mmHg 82%
    18:00 +23°C° 0 mm 1 mps 664 mmHg 84%
    19:00 +22°C° 0 mm 1 mps 664 mmHg 86%
    20:00 +20°C° 0 mm 0 mps 665 mmHg 86%
    21:00 +20°C° 0 mm 0 mps 665 mmHg 86%
    22:00 +20°C° 0 mm 0 mps 665 mmHg 86%
    23:00 +19°C° 0 mm 0 mps 665 mmHg 86%

    Mañana, 23 Octubre, Lunes

    Tiempo Temperatura Precipitaciones Viento Presión Humedad
    00:00 +21°C° 0 mm 1 mps 665 mmHg 87%
    01:00 +21°C° 0 mm 1 mps 664 mmHg 88%
    02:00 +21°C° 0 mm 1 mps 664 mmHg 89%
    03:00 +20°C° 0 mm 1 mps 664 mmHg 91%
    04:00 +20°C° 0 mm 1 mps 664 mmHg 92%
    05:00 +21°C° 0,1 mm 1 mps 664 mmHg 91%
    06:00 +21°C° 0,1 mm 1 mps 665 mmHg 90%
    07:00 +22°C° 0,1 mm 1 mps 665 mmHg 89%
    08:00 +26°C° 0 mm 1 mps 666 mmHg 75%
    09:00 +28°C° 0 mm 0 mps 667 mmHg 62%
    10:00 +31°C° 0 mm 0 mps 668 mmHg 48%
    11:00 +34°C° 0 mm 1 mps 667 mmHg 44%
    12:00 +35°C° 0 mm 1 mps 667 mmHg 39%
    13:00 +36°C° 0 mm 1 mps 666 mmHg 35%
    14:00 +35°C° 0 mm 1 mps 665 mmHg 38%
    15:00 +33°C° 0 mm 1 mps 665 mmHg 40%
    16:00 +32°C° 0 mm 1 mps 664 mmHg 43%
    17:00 +30°C° 0 mm 1 mps 664 mmHg 46%
    18:00 +29°C° 0 mm 1 mps 664 mmHg 50%
    19:00 +27°C° 0 mm 1 mps 664 mmHg 53%
    20:00 +26°C° 0,8 mm 2 mps 664 mmHg 61%
    21:00 +25°C° 0,8 mm 2 mps 665 mmHg 70%
    22:00 +23°C° 0,8 mm 2 mps 665 mmHg 78%
    23:00 +23°C° 0,8 mm 2 mps 665 mmHg 82%

    Pasado mañana, 24 Octubre, Martes

    Tiempo Temperatura Precipitaciones Viento Presión Humedad
    00:00 +23°C° 0,8 mm 2 mps 664 mmHg 86%
    01:00 +21°C° 0,8 mm 2 mps 664 mmHg 90%
    02:00 +21°C° 0 mm 2 mps 664 mmHg 92%
    03:00 +21°C° 0 mm 3 mps 664 mmHg 93%
    04:00 +20°C° 0 mm 3 mps 663 mmHg 94%
    05:00 +20°C° 0 mm 3 mps 664 mmHg 93%
    06:00 +21°C° 0 mm 3 mps 665 mmHg 91%
    07:00 +21°C° 0 mm 2 mps 665 mmHg 89%
    08:00 +24°C° 0 mm 2 mps 666 mmHg 82%
    09:00 +25°C° 0 mm 2 mps 666 mmHg 74%
    10:00 +27°C° 0 mm 2 mps 667 mmHg 66%
    11:00 +28°C° 0,1 mm 2 mps 666 mmHg 61%
    12:00 +30°C° 0,1 mm 2 mps 666 mmHg 56%
    13:00 +31°C° 0,1 mm 2 mps 665 mmHg 51%
    14:00 +30°C° 0,6 mm 2 mps 665 mmHg 55%
    15:00 +29°C° 0,6 mm 2 mps 664 mmHg 59%
    16:00 +29°C° 0,6 mm 2 mps 664 mmHg 63%
    17:00 +27°C° 0,1 mm 2 mps 664 mmHg 68%
    18:00 +26°C° 0,1 mm 2 mps 664 mmHg 73%
    19:00 +24°C° 0,1 mm 2 mps 664 mmHg 79%
    20:00 +24°C° 0,1 mm 2 mps 665 mmHg 81%
    21:00 +23°C° 0,1 mm 2 mps 665 mmHg 82%
    22:00 +22°C° 0,1 mm 3 mps 666 mmHg 84%
    23:00 +21°C° 1,5 mm 2 mps 665 mmHg 87%

    25 Octubre, Miércoles

    Tiempo Temperatura Precipitaciones Viento Presión Humedad
    00:00 +21°C° 1,5 mm 2 mps 665 mmHg 91%
    01:00 +20°C° 1,5 mm 2 mps 665 mmHg 95%
    02:00 +20°C° 0,3 mm 2 mps 665 mmHg 95%
    03:00 +20°C° 0,3 mm 2 mps 665 mmHg 95%
    04:00 +20°C° 0,3 mm 2 mps 664 mmHg 95%
    05:00 +20°C° 0 mm 2 mps 665 mmHg 94%
    06:00 +20°C° 0 mm 2 mps 665 mmHg 93%
    07:00 +21°C° 0 mm 2 mps 666 mmHg 92%
    08:00 +24°C° 0 mm 2 mps 666 mmHg 82%
    09:00 +26°C° 0 mm 2 mps 667 mmHg 71%
    10:00 +28°C° 0 mm 2 mps 667 mmHg 61%
    11:00 +30°C° 0,1 mm 2 mps 667 mmHg 55%
    12:00 +31°C° 0,1 mm 2 mps 666 mmHg 49%
    13:00 +33°C° 0,1 mm 1 mps 666 mmHg 43%
    14:00 +32°C° 0 mm 1 mps 665 mmHg 45%
    15:00 +32°C° 0 mm 2 mps 665 mmHg 48%
    16:00 +31°C° 0 mm 2 mps 664 mmHg 50%
    17:00 +29°C° 0 mm 2 mps 664 mmHg 55%
    18:00 +27°C° 0 mm 2 mps 664 mmHg 60%
    19:00 +26°C° 0 mm 2 mps 664 mmHg 66%
    20:00 +25°C° 0,1 mm 2 mps 665 mmHg 69%
    21:00 +24°C° 0,1 mm 2 mps 665 mmHg 72%
    22:00 +24°C° 0,1 mm 3 mps 665 mmHg 75%
    23:00 +22°C° 0,1 mm 3 mps 665 mmHg 79%

    26 Octubre, Jueves

    Tiempo Temperatura Precipitaciones Viento Presión Humedad
    00:00 +21°C° 0,1 mm 3 mps 664 mmHg 83%
    01:00 +20°C° 0,1 mm 3 mps 664 mmHg 87%
    02:00 +20°C° 0,2 mm 3 mps 664 mmHg 89%
    03:00 +20°C° 0,2 mm 3 mps 664 mmHg 90%
    04:00 +19°C° 0,2 mm 3 mps 664 mmHg 92%
    05:00 +19°C° 0 mm 2 mps 664 mmHg 90%
    06:00 +20°C° 0 mm 2 mps 665 mmHg 89%
    07:00 +20°C° 0 mm 2 mps 665 mmHg 88%
    08:00 +24°C° 0 mm 2 mps 666 mmHg 76%
    09:00 +27°C° 0 mm 2 mps 667 mmHg 65%
    10:00 +30°C° 0 mm 1 mps 667 mmHg 54%
    11:00 +31°C° 0,1 mm 1 mps 667 mmHg 50%
    12:00 +33°C° 0,1 mm 1 mps 666 mmHg 46%
    13:00 +34°C° 0,1 mm 1 mps 666 mmHg 42%
    14:00 +33°C° 0 mm 1 mps 665 mmHg 43%
    15:00 +34°C° 0 mm 2 mps 664 mmHg 44%
    16:00 +32°C° 0 mm 2 mps 664 mmHg 45%
    17:00 +30°C° 0 mm 2 mps 664 mmHg 52%
    18:00 +28°C° 0 mm 2 mps 664 mmHg 59%
    19:00 +25°C° 0 mm 2 mps 664 mmHg 67%
    20:00 +25°C° 0,2 mm 2 mps 664 mmHg 72%
    21:00 +24°C° 0,2 mm 2 mps 664 mmHg 76%
    22:00 +23°C° 0,2 mm 2 mps 664 mmHg 81%
    23:00 +21°C° 0 mm 2 mps 664 mmHg 83%

    27 Octubre, Viernes

    Tiempo Temperatura Precipitaciones Viento Presión Humedad
    00:00 +21°C° 0 mm 2 mps 664 mmHg 85%
    01:00 +20°C° 0 mm 2 mps 663 mmHg 86%
    02:00 +20°C° 0,4 mm 2 mps 663 mmHg 89%
    03:00 +19°C° 0,4 mm 2 mps 663 mmHg 92%
    04:00 +19°C° 0,4 mm 2 mps 663 mmHg 94%
    05:00 +19°C° 0,1 mm 2 mps 664 mmHg 92%
    06:00 +19°C° 0,1 mm 2 mps 664 mmHg 91%
    07:00 +20°C° 0,1 mm 2 mps 665 mmHg 89%
    08:00 +24°C° 0 mm 2 mps 665 mmHg 77%
    09:00 +26°C° 0 mm 2 mps 666 mmHg 65%
    10:00 +29°C° 0 mm 1 mps 666 mmHg 53%
    11:00 +31°C° 0 mm 2 mps 666 mmHg 48%
    12:00 +32°C° 0 mm 2 mps 665 mmHg 44%
    13:00 +34°C° 0 mm 2 mps 665 mmHg 40%
    14:00 +32°C° 0,1 mm 2 mps 664 mmHg 42%
    15:00 +32°C° 0,1 mm 2 mps 664 mmHg 44%
    16:00 +31°C° 0,1 mm 2 mps 664 mmHg 47%
    17:00 +29°C° 0,4 mm 2 mps 664 mmHg 53%
    18:00 +27°C° 0,4 mm 2 mps 664 mmHg 60%
    19:00 +25°C° 0,4 mm 1 mps 664 mmHg 67%
    20:00 +24°C° 0,7 mm 1 mps 664 mmHg 71%
    21:00 +23°C° 0,7 mm 2 mps 665 mmHg 76%
    22:00 +23°C° 0,7 mm 2 mps 665 mmHg 80%
    23:00 +22°C° 0,1 mm 1 mps 664 mmHg 83%
    Mostrar más